星链-3784 (STARLINK-3784 )

导读 | 豆包AI

STARLINK-3784是美国太空探索技术公司(SpaceX)星链(Starlink)星座中的卫星,于北京时间2022年4月21日发射入轨。星链项目旨在构建全球卫星互联网,该卫星作为星链组网卫星之一,承担着为全球范围内用户提供低延迟、高速率宽带互联网接入服务的任务,助力星链星座全球覆盖能力的完善,是美国低轨巨型星座建设的组成部分。

基本信息
目录编号:
52275
目录名称:
STARLINK-3784
国际标识:
2022-041Q
轨道中心:
EARTH
卫星名称:
星链-3784
卫星全名:
星链-3784 (STARLINK-3784 )
卫星状态:
在轨 (已飞行1423 天)
发射日期:
2022-04-21 UTC
国别 :
美国 (US)
星等 :
--
轨道信息
数据来源 国际轨道数据
星历时间: 2026-03-14T18:50:33+0800
12小时前
查看轨道信息
半长轴: 6917.853km
偏心率: 0.0001682
轨道倾角: 53.218°
近地点辐角 79.265°
升交点赤经 87.740°
平近点角 280.853°
近地点: 538.552km
远地点: 540.88km
周期: 95.437分钟
每日圈数: 15.088491
详细信息
固有亮度:
5
最大亮度:
2.5
卫星平台:
Starlink v1.5
覆盖范围:
全球
运营商:
太空探索技术公司
运营商所在国:
美国
制造商(研发单位):
太空探索技术公司
制造商所在国:
美国
使用方式:
暂无
卫星简介
星链(Starlink)计划是由太空探索技术公司(SpaceX)提出的一个巨型低轨卫星互联网星座项目,计划在2019年至2024年间在太空搭建由约1.2万颗卫星组成的“星链”网络,其中1584颗将部署在地球上空550千米处的近地轨道,并从2020年开始工作。该卫星仍在工作。
2D轨道图
3D轨道图
轨道高度分析图
轨道倾角分析图
轨道综合分析图
查看轨道综合分析图